カタログに戻る

STARLINK-5504

運用中通信VLEO
NORAD 57262·PAYLOAD·🇺🇸 United States

打ち上げ Jul 7, 2023 から Vandenberg Space Force Base

Loading…

次のパス (今後24時間)

TLE

最新Source: CelesTrak SupGP

元期: Sep 15, 2026, 02:53 UTC

1 57262C 23094AW  26258.12062500 -.00048727  00000+0 -17651-2 0  2588
2 57262  43.0020  29.8615 0001571 263.3424  92.6542 15.27597776    17

AllMySatでSTARLINK-5504をリアルタイム追跡

Download on the App Store